sat.trackr.live / text

‹ back to catalog

STARLINK-4715

NORAD 53801 · 2022-111AE

PAYLOAD ACTIVE UNKNOWN

§ Identity

Operator
Country
US
Launch date
2022-09-11
Launch site
AFETR
Launch vehicle
Mass (kg)
RCS (m²)

Purposes: comms

External: N2YO · Heavens-Above · Gunter

§ Orbital elements

Epoch: 2026-09-20T22:23:15.293760Z

Period
93.85 min
Inclination
53.1621°
Eccentricity
0.0001329
Mean motion
15.34382353 rev/d
Perigee alt
461.8 km
Apogee alt
463.7 km
Semi-major
6,840.9 km
B*
-2.3438e-5
RAAN
91.3895°
Arg perigee
69.5220°
Mean anomaly
290.5925°
Rev number
22,351

§ Raw data

STARLINK-47151 53801U 22111AE  26263.93281590 -.00001168  00000+0 -23438-4 0  99912 53801  53.1621  91.3895 0001329  69.5220 290.5925 15.34382353223513

JSON: /api/v1/satellites/53801 · /tle

For live sub-satellite position, see the globe view (requires WebGL).

§ Visibility from observer

Set your observer location to see the next 7 days of passes ≥ 10°. The values pass through the URL so the page stays shareable.

No JS? Fill the form by hand. The geolocation button needs JavaScript.